Regional Weather Roundup
Issued by NWS Binghamton, NY

Home | Current Version | Previous Version | Text Only | Print | Product List | Glossary On
Versions: 1 2 3 4 5 6 7 8 9 10 11 12 13 14 15 16 17 18 19 20 21 22 23 24 25 26 27 28
000
ASUS41 KBGM 290810
RWRBGM

REGIONAL WEATHER ROUNDUP
NATIONAL WEATHER SERVICE BINGHAMTON NY
400 AM EDT THU JUN 29 2017

Note: "fair" indicates few or no clouds below 12,000 feet with no
significant weather and/or obstructions to visibility.

* = Station(s) that does not report precipitation, such as rain,
snow, etc, also no thunder or fog.

NYZ009-015>018-022>025-036-037-044>046-055>057-062-290900
...Central New York...

CITY           SKY/WX    TMP DP  RH WIND       PRES   REMARKS
Binghamton     CLOUDY    60  49  66 S5        30.12S
Cortland       MOCLDY    57  55  94 CALM      30.11R
Dansville      MOCLDY    60  55  83 SE3       30.07F
Elmira         CLOUDY    58  56  93 CALM      30.09S
Seneca Falls   PTSUNNY   63  54  72 SW6       30.07S
Ithaca         CLOUDY    62  52  69 S7        30.10S
Hamilton       CLEAR     55  54  94 CALM      30.11S
Hornell        CLOUDY    57  54  88 SE3       30.12S
Monticello     CLOUDY    57  54  88 CALM      30.17S
Norwich        PTCLDY    55  54  94 CALM      30.13R
Oneonta        CLEAR     61 N/A N/A SW3       30.13S
Penn Yan       PTCLDY    64  51  62 VRB5      30.08R
Rome           CLOUDY    59  55  87 E5        30.08R
Sidney         CLEAR    N/A N/A N/A CALM      30.12S
Syracuse       MOCLDY    63  55  75 S6        30.05S
$$

PAZ038>040-043-044-047-048-072-290900
...Northeast Pennsylvania...

CITY           SKY/WX    TMP DP  RH WIND       PRES   REMARKS
Hazleton         N/A     63  50  63 S3        30.18S
Scranton       CLOUDY    63  51  65 CALM      30.13S
$$
&&
KEY
WCI = Wind Chill Index
VSB = Visibility
HX  = Heat Index
$$




USA.gov is the U.S. government's official web portal to all federal, state and local government web resources and services.